カタログに戻る

STARLINK-36390

運用中通信SSO
NORAD 67886·PAYLOAD·🇺🇸 United States

打ち上げ Feb 21, 2026 から Vandenberg Space Force Base

Loading…

次のパス (今後24時間)

TLE

最新Source: CelesTrak SupGP

元期: Sep 14, 2026, 21:39 UTC

1 67886C 26035H   26257.90256944 -.00051766  00000+0 -16071-2 0  2572
2 67886  97.2844 189.7718 0001803  94.4071 181.6803 15.33461061    17

AllMySatでSTARLINK-36390をリアルタイム追跡

Download on the App Store